GFSNW_850_thetae_276.txt.gz
Theta_e
322 318 313 320 322 321 322 323 330 320 318 323 324 325 324 322 324 323 324 325 326 328 330 330 327 325 325 324 325 324 325 326 328 328 329 333 335 337 338 341 340 338 337 336
321 320 313 320 322 321 321 325 327 320 321 325 325 324 324 323 324 325 325 326 327 329 330 332 329 327 326 323 325 325 326 324 326 327 329 329 332 335 337 338 338 336 337 337
320 321 313 320 321 322 321 323 333 325 323 325 325 326 326 327 327 327 327 328 329 330 332 331 332 330 329 324 325 321 326 325 326 327 328 329 331 332 335 337 339 336 337 336
319 320 315 320 321 323 321 322 334 333 327 325 329 329 330 329 329 330 331 331 330 332 335 331 331 330 331 329 325 323 326 326 326 326 327 328 331 332 333 335 335 336 336 335
318 319 315 319 321 323 322 325 327 328 332 331 331 327 332 332 330 331 331 335 335 336 337 333 331 336 336 338 327 328 326 327 328 327 327 327 328 330 333 335 335 334 333 334
319 320 316 318 321 322 322 322 322 324 327 332 334 333 333 333 332 331 332 335 335 336 335 334 335 334 336 336 337 331 329 328 330 328 328 327 327 328 329 331 331 331 332 333
319 320 319 316 320 322 322 321 322 325 328 330 333 332 332 332 331 332 331 331 333 335 333 333 334 333 335 336 335 335 330 330 331 330 331 329 329 330 330 331 330 330 331 333
320 320 320 315 320 321 321 320 322 325 328 327 327 328 330 329 328 328 329 330 331 332 331 337 336 334 337 337 336 334 334 336 336 334 331 329 331 332 333 333 332 332 333 332
320 320 320 316 320 320 321 320 320 322 325 325 325 326 326 329 329 329 329 330 329 331 336 337 338 334 333 335 337 336 333 335 337 336 334 331 331 337 339 338 333 339 339 339
320 320 319 315 318 319 319 320 320 321 325 325 325 325 325 324 326 329 329 329 330 332 336 336 334 333 336 335 335 339 338 338 334 335 335 334 337 340 339 337 339 340 341 342
319 320 319 316 315 318 318 319 320 320 323 324 324 324 324 324 325 328 328 329 332 332 337 335 335 335 337 338 336 337 336 336 336 337 337 337 337 339 341 343 342 342 342 343
319 319 319 317 316 316 317 318 319 318 317 323 322 323 324 324 325 325 326 328 330 330 337 337 339 337 338 335 336 342 338 335 337 336 337 343 339 339 340 340 340 342 341 341
319 319 319 318 318 317 316 318 319 318 317 322 323 323 323 322 321 324 325 326 327 329 332 333 336 340 341 337 336 338 343 340 339 342 333 336 338 338 339 339 339 338 338 340
318 319 319 318 319 317 316 317 318 318 318 323 324 322 322 323 323 322 323 325 326 327 329 331 333 335 335 337 340 340 341 340 341 341 340 337 337 337 337 337 336 337 337 340
318 319 319 319 319 318 317 317 317 318 318 322 322 323 323 322 322 323 324 323 323 325 328 329 331 331 333 334 334 334 335 336 341 338 339 337 336 336 336 336 337 339 339 341
318 319 319 319 319 318 318 318 318 318 317 317 325 324 324 323 323 323 324 325 324 325 326 327 328 330 330 330 331 330 329 332 332 334 334 335 334 334 335 336 338 340 340 341
318 319 319 318 318 318 318 320 318 319 317 318 322 327 324 325 325 324 324 324 326 327 327 327 328 331 329 330 332 329 329 330 330 331 331 332 333 335 336 337 340 340 342 343
317 318 318 317 317 317 317 317 317 318 318 320 325 327 325 324 327 326 325 327 327 327 327 327 329 331 332 332 330 329 329 329 331 331 332 332 333 334 336 338 340 341 342 342
316 317 317 316 316 316 316 318 318 318 318 321 324 327 329 326 327 327 326 327 330 328 329 329 330 332 335 332 331 330 329 331 331 332 331 333 335 335 335 336 338 339 340 342
315 315 316 316 316 317 317 317 316 315 317 317 323 324 326 325 327 328 328 327 331 333 331 330 332 332 329 330 331 335 336 335 335 334 333 332 336 336 335 335 336 336 338 343
314 315 316 317 317 317 317 317 317 316 319 320 322 324 326 324 327 329 329 331 330 331 332 332 332 333 332 337 338 338 338 337 338 337 337 335 333 335 336 336 337 337 340 343
315 316 316 315 316 317 319 320 319 319 323 324 324 324 323 324 324 325 328 331 332 331 332 333 333 333 339 338 337 336 336 336 337 335 336 336 334 334 335 337 339 340 342 344
315 316 316 316 317 320 321 323 323 324 323 323 323 325 322 322 322 324 327 333 332 332 333 333 332 340 339 339 337 335 334 335 337 338 334 333 334 335 335 338 341 343 344 343
315 316 318 317 320 319 321 322 324 324 325 326 325 327 325 323 324 326 329 331 334 333 332 333 335 341 340 337 335 335 334 334 335 336 338 334 334 334 336 339 341 343 343 342
314 316 318 319 319 320 322 322 323 323 323 324 326 326 326 327 325 326 330 333 333 331 332 331 338 336 335 335 334 334 333 334 334 334 336 339 335 335 336 339 341 342 343 343
315 315 317 317 318 320 320 320 320 320 319 321 324 329 330 330 326 328 328 329 329 331 336 335 334 334 333 333 332 332 332 333 333 334 335 337 339 337 335 337 340 341 341 341
314 315 316 318 319 320 320 318 318 317 319 325 325 328 330 329 329 328 327 327 329 335 334 333 334 334 333 331 331 333 333 333 333 333 335 336 337 339 338 338 340 339 340 340

GFSNW_850_thetae_279.txt.gz
Theta_e
321 321 321 315 317 322 324 326 328 326 323 324 324 327 327 324 326 325 327 328 329 329 331 331 329 329 328 327 327 328 328 328 329 331 332 333 334 337 337 340 341 338 339 338
319 320 320 317 319 322 321 328 327 327 322 328 328 327 327 326 325 324 326 327 329 330 332 333 332 330 329 327 327 327 328 327 327 328 331 331 332 335 338 336 338 341 340 337
320 320 320 319 319 322 321 326 330 329 323 324 329 328 327 326 325 325 326 328 329 330 332 332 334 330 329 328 326 323 327 327 327 328 330 330 331 333 336 338 339 339 338 336
317 318 319 319 319 322 321 326 329 337 330 327 327 328 329 329 328 328 327 329 330 331 334 333 333 332 332 331 328 327 327 327 328 328 328 330 330 331 333 335 337 338 339 337
317 318 319 318 319 322 322 328 328 331 331 333 331 326 331 332 330 329 331 330 331 330 334 337 335 333 333 335 334 329 328 328 328 329 329 329 329 330 331 333 334 335 336 336
318 318 320 318 319 322 326 327 326 326 328 330 333 332 331 332 331 332 330 334 334 335 336 336 336 336 336 337 338 332 329 328 329 329 330 329 329 329 332 333 334 336 337 336
318 319 320 320 317 321 323 326 325 327 329 329 331 331 333 333 332 333 332 332 335 335 336 335 334 334 333 334 336 335 335 331 330 331 331 331 330 331 330 331 332 333 333 332
319 321 320 321 315 320 321 324 325 328 330 328 329 330 333 332 331 333 330 329 331 333 335 337 336 334 332 334 334 335 334 332 331 332 332 332 331 331 331 331 332 332 333 333
318 321 321 321 318 318 320 324 324 324 328 329 327 328 328 330 331 332 330 329 331 332 336 336 337 335 333 335 334 334 333 335 337 338 336 334 332 332 331 333 334 335 337 338
318 320 320 320 317 318 319 320 323 324 326 327 328 327 328 327 328 331 330 331 331 332 336 336 335 337 333 337 337 337 334 335 335 336 339 338 337 339 335 334 342 343 343 345
319 319 320 320 317 317 319 320 322 322 324 325 326 327 327 327 326 331 331 331 330 332 335 335 335 335 337 338 335 340 338 338 334 336 336 339 340 338 338 345 344 344 344 344
318 319 320 319 318 315 317 319 320 320 321 324 325 325 325 326 327 328 328 330 334 333 337 335 335 342 337 336 338 333 338 332 339 336 341 334 337 341 341 341 341 343 341 342
318 318 319 320 319 317 316 319 318 319 320 324 326 326 325 325 324 325 327 327 328 331 334 334 338 340 338 341 335 338 339 336 340 335 336 334 338 336 338 338 339 339 339 339
317 318 319 319 320 316 319 317 318 318 318 325 327 325 324 324 324 324 325 326 329 329 330 332 334 336 337 337 338 340 341 341 341 338 334 334 336 339 339 338 337 339 339 339
318 318 318 320 317 319 318 317 317 317 319 322 325 325 325 325 325 325 325 324 325 326 328 332 333 332 334 335 335 335 333 335 337 335 339 341 341 338 337 337 338 339 340 341
318 319 319 320 319 319 318 318 319 318 317 318 327 327 327 326 324 325 324 325 325 325 326 329 330 330 332 335 332 331 331 330 331 333 334 335 336 335 335 336 337 338 340 341
318 319 320 319 318 318 318 320 319 319 318 318 325 329 327 326 326 326 326 325 326 327 326 327 328 329 330 333 332 329 329 330 330 331 331 331 332 333 333 336 337 339 339 341
318 318 319 318 318 318 317 318 318 317 319 320 326 330 327 326 328 328 326 327 327 328 328 328 329 328 330 334 332 329 329 330 329 328 329 330 330 332 333 336 338 339 339 340
317 317 318 317 317 316 317 317 318 318 319 319 326 330 331 327 328 328 328 328 330 328 331 330 329 330 331 332 332 331 330 330 330 330 333 333 333 334 336 337 338 339 339 340
316 316 316 316 316 317 317 317 317 316 317 317 321 326 329 327 329 330 329 329 332 333 331 329 330 330 329 329 330 332 333 335 335 335 334 333 333 334 336 337 337 337 338 339
314 315 316 317 317 316 317 317 317 316 319 318 320 323 327 326 329 331 328 332 331 331 332 332 332 332 333 330 330 337 338 339 340 340 339 338 334 334 337 337 336 336 338 339
314 316 316 315 316 317 319 320 319 319 322 324 326 327 326 327 327 328 331 331 332 332 331 332 334 332 339 337 337 338 340 339 338 339 339 339 339 337 336 337 337 339 340 345
315 315 316 316 317 319 320 322 322 324 324 325 325 328 327 327 327 327 328 330 331 330 332 334 334 340 341 339 339 339 338 338 338 340 339 337 337 337 336 337 339 342 345 347
314 316 316 317 319 319 321 322 324 323 326 326 325 325 326 325 327 328 327 328 329 330 331 333 335 342 341 341 340 338 338 337 338 338 340 340 336 336 336 337 340 344 346 346
315 315 317 319 319 320 322 321 322 324 325 325 327 327 327 327 327 326 328 328 330 331 333 333 343 344 343 341 339 339 338 338 338 338 338 340 338 336 337 338 340 344 346 346
314 315 317 318 320 321 321 323 323 323 321 322 324 328 330 331 327 327 328 329 331 331 331 340 343 342 341 340 339 338 337 337 337 337 338 339 341 339 337 339 341 344 345 345
314 314 316 319 320 321 322 323 323 320 320 324 324 327 329 329 331 330 328 328 330 334 336 337 339 340 339 338 337 337 337 337 337 337 337 338 339 340 341 338 339 342 344 345

GFSNW_850_thetae_285.txt.gz
Theta_e
321 321 322 319 320 320 319 323 329 330 329 327 326 326 325 324 324 325 328 326 326 327 328 328 329 330 327 328 326 325 325 322 323 325 325 327 329 329 327 327 330 335 341 344
319 320 321 318 320 317 321 325 329 329 329 330 327 325 325 325 325 326 327 327 325 325 325 327 330 332 332 332 328 328 326 324 322 324 323 324 329 329 328 328 327 332 340 344
317 319 318 317 320 317 320 325 332 330 330 329 328 326 327 329 329 327 327 325 324 325 326 327 331 331 332 332 327 327 325 321 321 324 325 326 329 330 329 327 327 332 338 340
316 318 317 318 320 316 320 326 330 332 335 333 332 331 327 327 329 328 326 327 325 325 327 330 330 331 331 334 330 328 323 322 323 323 325 325 325 325 328 328 327 328 339 338
315 317 317 319 320 316 321 325 331 330 331 330 331 330 331 327 328 331 332 330 328 326 326 328 329 331 336 338 337 331 326 324 326 326 326 325 325 326 326 328 328 329 335 338
315 316 318 319 321 316 325 327 328 329 330 332 332 330 331 331 333 334 332 332 332 332 332 334 334 334 336 335 335 336 335 335 335 326 326 325 325 326 326 326 328 329 328 329
315 317 318 319 320 316 319 323 325 328 331 330 331 331 330 331 333 335 333 333 334 333 332 332 332 333 333 334 333 334 335 334 335 336 332 329 326 326 327 327 327 327 330 330
315 317 318 320 320 320 316 320 324 327 330 329 331 330 331 331 332 333 333 333 331 331 330 330 333 332 332 334 332 334 332 334 333 334 335 331 329 339 341 340 331 340 342 332
314 316 318 319 320 321 317 320 324 325 326 328 328 328 330 332 330 331 331 330 331 331 328 330 335 335 336 337 334 333 331 331 335 334 335 336 341 339 339 340 341 341 343 344
314 316 318 319 321 321 320 318 321 323 325 325 326 328 329 329 331 330 331 330 332 331 329 330 333 333 338 338 339 338 338 337 336 337 340 343 338 340 341 346 348 340 337 342
316 317 318 319 320 320 319 320 322 323 323 323 323 325 326 327 329 332 330 331 332 334 335 332 333 338 339 340 337 339 338 336 340 341 344 344 335 338 342 338 339 337 334 334
316 316 317 318 319 319 319 316 322 322 321 322 322 323 324 324 328 328 329 329 330 333 334 334 338 343 338 337 341 335 341 340 340 337 340 335 333 336 337 336 336 337 336 334
316 317 317 318 318 319 320 318 318 319 320 321 323 323 323 326 325 324 326 326 327 329 327 331 336 339 336 335 337 336 336 330 335 335 337 333 332 332 333 338 338 334 335 334
315 316 317 318 318 319 320 320 318 319 320 321 323 323 326 327 328 328 327 325 325 325 325 328 331 335 332 333 333 335 335 332 332 332 331 330 333 332 334 335 336 339 334 340
313 315 317 317 317 319 319 320 317 319 320 321 320 320 324 326 327 327 327 327 327 327 327 328 329 331 334 334 335 336 331 333 334 334 331 331 332 332 336 333 333 334 336 339
313 314 317 318 319 319 318 319 320 320 320 320 321 322 323 325 328 329 328 327 327 327 328 328 327 327 328 332 337 337 333 330 330 331 331 330 331 336 338 333 335 334 335 336
312 314 318 318 319 319 318 319 321 320 320 320 320 325 329 328 326 329 327 327 327 327 328 329 328 327 327 329 331 332 332 333 333 331 331 332 332 334 336 339 336 334 334 338
313 314 318 319 319 318 318 319 319 319 319 319 322 326 328 329 329 329 327 327 327 327 327 328 330 330 330 330 330 328 328 332 332 332 331 330 330 330 329 330 332 333 333 335
313 316 318 318 317 317 318 318 318 318 318 320 322 326 330 328 329 328 329 328 331 329 329 328 330 331 336 334 330 328 328 330 331 331 332 332 332 334 333 333 333 333 336 336
314 316 317 317 317 317 317 317 317 317 318 318 319 320 323 323 327 330 330 331 333 333 332 330 331 331 331 331 330 330 332 331 332 332 332 334 335 335 335 333 333 333 336 338
315 316 316 317 317 317 317 317 317 316 317 317 318 320 322 322 326 329 329 333 334 336 333 332 334 334 332 331 331 330 329 330 330 334 335 335 335 337 338 336 336 337 338 341
315 316 316 316 316 316 318 319 318 318 321 321 322 323 322 323 323 328 331 332 333 336 334 336 334 332 331 333 333 330 329 330 336 336 336 338 339 339 339 339 338 339 347 341
315 316 316 316 315 316 319 320 321 322 321 323 325 327 326 325 324 330 333 334 335 332 335 334 335 340 337 335 334 333 334 337 337 338 339 340 340 340 339 340 338 338 342 339
315 315 312 318 319 318 319 320 321 321 322 324 325 326 328 326 330 331 332 331 332 336 334 333 333 340 338 335 336 337 338 338 338 338 339 340 341 340 337 339 337 340 347 344
314 315 317 318 318 319 320 319 320 321 322 324 325 326 326 328 326 328 331 333 332 330 329 328 328 333 338 337 337 337 337 338 338 339 339 340 341 342 337 337 337 343 345 344
314 314 317 317 319 319 319 320 322 322 324 326 325 327 328 328 328 329 331 330 330 335 333 330 337 334 343 341 339 338 338 339 339 339 339 340 341 343 341 339 340 345 345 346
313 314 315 317 319 320 321 321 321 321 322 326 325 327 327 326 327 328 329 332 335 333 331 327 325 330 342 341 340 340 340 340 339 339 339 339 340 340 341 341 339 344 346 347

GFSNW_850_thetae_291.txt.gz
Theta_e
312 313 315 317 320 317 318 319 318 326 326 323 317 319 319 322 322 325 321 319 319 319 321 321 322 325 326 329 320 317 314 313 317 318 318 320 320 323 318 320 323 329 332 335
312 314 315 317 318 318 316 319 323 326 327 322 321 320 323 323 324 321 322 322 322 321 321 323 322 325 327 331 331 320 316 314 317 318 317 319 322 323 321 317 318 331 335 334
313 314 315 317 317 320 315 322 323 330 327 325 324 327 328 328 329 325 325 322 321 318 320 320 324 325 327 332 332 323 319 311 316 319 319 320 323 322 322 320 320 322 327 329
313 314 316 317 318 320 319 324 324 327 326 326 326 326 328 329 329 327 328 325 329 322 321 321 322 326 330 331 331 329 317 318 318 318 319 321 322 324 320 321 320 323 322 332
312 315 316 317 319 319 325 326 325 326 326 327 327 325 327 328 330 328 330 331 330 320 324 324 330 330 330 332 328 328 322 326 322 323 326 324 335 338 334 329 342 325 327 329
313 315 316 318 319 319 321 323 324 325 326 324 327 327 328 330 328 329 330 331 328 329 329 330 329 330 329 329 329 328 327 326 324 328 325 324 323 338 339 337 339 340 338 333
314 314 317 318 319 320 316 320 323 324 324 324 326 325 326 327 327 328 329 329 328 329 329 328 327 326 326 327 326 325 326 326 323 326 324 329 324 333 337 340 337 336 337 337
314 313 316 317 318 320 319 321 321 322 321 323 323 324 324 325 326 327 328 329 329 330 326 323 324 324 326 328 328 326 323 324 326 328 325 325 334 333 334 338 341 337 338 338
315 314 316 318 318 320 321 319 320 320 321 318 323 322 322 323 324 325 328 329 330 331 320 325 326 327 328 331 332 326 325 321 326 325 330 331 332 334 333 333 341 338 337 337
316 315 316 317 318 319 320 319 320 320 321 319 320 322 322 324 324 323 325 326 328 329 322 324 324 325 332 334 335 334 330 327 333 333 333 331 332 333 334 341 341 336 337 337
315 316 316 316 317 318 319 320 320 321 321 320 321 321 321 320 321 324 326 326 327 327 328 329 330 334 332 332 333 334 331 330 335 332 336 334 331 332 333 333 335 337 336 336
314 314 316 316 316 317 317 318 318 319 318 320 321 320 320 320 320 323 322 324 324 327 326 325 327 334 329 328 334 329 333 329 332 331 330 328 333 331 333 333 335 336 335 335
313 313 314 315 316 317 317 317 318 320 319 319 318 320 320 321 321 321 321 321 323 327 326 325 329 333 327 330 328 330 329 329 330 329 325 328 329 332 332 332 331 336 336 336
313 313 313 314 317 318 317 318 318 319 319 319 319 320 319 319 319 321 322 323 324 324 324 324 322 328 329 328 326 327 327 328 327 327 326 328 329 329 329 332 329 331 336 336
313 313 312 313 316 317 317 318 318 318 318 317 318 319 321 320 320 321 321 321 322 322 323 319 321 323 328 324 325 326 328 326 327 326 326 326 328 329 330 331 331 330 335 336
313 312 312 313 317 318 318 318 319 320 319 318 321 319 321 323 324 322 323 324 321 322 323 322 325 326 327 327 329 327 330 330 330 328 329 330 330 330 331 330 331 332 334 332
312 312 312 313 317 318 318 318 319 319 319 319 320 318 320 324 325 326 325 322 324 324 325 323 325 325 324 320 326 324 328 328 329 326 328 329 330 331 331 331 332 334 331 331
311 312 312 314 317 317 318 318 319 319 320 319 320 317 319 323 323 325 324 324 325 326 326 324 323 324 323 323 323 326 326 326 326 325 325 325 327 331 331 331 330 331 332 333
310 312 314 315 316 316 317 318 318 318 319 319 320 320 321 320 319 321 327 325 321 324 320 320 323 321 324 323 325 327 327 327 327 327 326 326 326 326 333 334 333 332 331 332
311 313 315 315 317 317 317 317 317 318 318 318 318 318 317 318 319 321 323 325 325 324 323 323 321 324 325 326 326 326 326 326 327 327 327 329 329 329 333 332 332 333 335 336
313 314 315 316 317 317 317 318 317 317 317 317 317 317 318 318 317 319 322 325 326 331 327 325 324 325 323 329 328 326 326 327 327 327 328 329 330 329 329 331 334 334 336 336
313 314 315 315 316 316 318 318 317 317 317 317 317 318 317 318 319 319 322 327 324 329 325 327 329 322 326 327 330 332 336 335 331 329 330 329 330 329 331 335 335 337 338 338
314 315 316 316 315 315 317 319 319 318 317 318 320 322 322 321 320 319 320 327 328 326 327 329 326 325 326 327 330 332 334 335 333 330 330 330 330 335 337 337 339 339 339 339
314 315 311 316 317 316 316 314 313 317 319 319 319 321 324 325 325 324 327 323 324 330 331 329 324 323 325 326 328 331 333 334 334 332 331 331 336 337 338 340 340 338 339 340
315 314 315 315 315 316 316 316 316 317 317 318 318 321 323 322 325 324 327 328 329 328 330 326 323 323 323 324 325 327 330 332 333 334 335 336 336 339 339 340 340 337 339 340
313 314 315 315 314 314 315 316 316 316 318 320 321 322 321 321 322 326 327 329 330 331 329 324 323 322 322 323 326 326 328 331 333 334 335 336 338 338 338 339 340 338 338 340
313 313 314 314 314 314 316 317 318 318 318 318 319 323 324 321 324 327 324 325 326 326 325 323 321 320 320 320 323 326 326 327 333 331 333 332 336 337 338 338 340 339 342 340